Weather History for Detroit Lakes, MN

Change the Weather History Date:

Tuesday, February 19, 2013

  Actual Average Record
Temperature  
Mean Temperature -7 °F -  
Max Temperature 0 °F 23 °F 46 °F (1981)
Min Temperature -14 °F 3 °F -32 °F (1959)
Degree Days  
Heating Degree Days 72    
Moisture  
Dew Point -14 °F    
Average Humidity 79    
Maximum Humidity 85    
Minimum Humidity 71    
Precipitation  
Precipitation 0.00 in - - ()
Sea Level Pressure  
Sea Level Pressure 30.22 in    
Wind  
Wind Speed 19 mph (NNW)    
Max Wind Speed 25 mph    
Max Gust Speed 32 mph    
Visibility 6 miles    
Events      
Averages and records for this station are not official NWS values.
T = Trace of Precipitation, MM = Missing Value Source: NWS Daily Summary

Daily Weather History Graph

Daily Weather History Graph

Search for Another Location

Airport:

Trip Planner

Search our weather history database for the weather conditions in past years. The results will help you decide how hot, cold, wet, or windy it might be!

Date:

Astronomy

Feb. 19, 2013 Rise Set
Actual Time 7:20 AM CST 5:54 PM CST
Civil Twilight 6:49 AM CST 6:25 PM CST
Nautical Twilight 6:14 AM CST 7:01 PM CST
Astronomical Twilight 5:39 AM CST 7:36 PM CST
Moon 12:15 PM CST (2/19) 3:04 AM CST (2/19)
Length of Visible Light 11h 36m
Length of Day
10h 34m
Waxing Gibbous, 67% of the Moon is Illuminated
Feb 19
Waxing Gibbous
Feb 25
Full
Mar 4
Last Quarter
Mar 11
New
Mar 19
First Quarter

Hourly Weather History & Observations

Time (CST) Temp. Windchill Dew Point Humidity Pressure Visibility Wind Dir Wind Speed Gust Speed Precip Events Conditions
12:16 AM -0.4 °F -22.8 °F -4.0 °F 85% 30.00 in 1.8 mi NNW 20.7 mph 28.8 mph N/A   Overcast
12:35 AM -0.4 °F -22.3 °F -4.0 °F 85% 30.01 in 2.0 mi NNW 19.6 mph 27.6 mph N/A   Overcast
12:55 AM -2.2 °F -26.2 °F -5.8 °F 85% 30.01 in 1.8 mi NNW 23.0 mph 27.6 mph N/A   Overcast
1:16 AM -2.2 °F -26.2 °F -5.8 °F 85% 30.02 in 1.8 mi NNW 23.0 mph 29.9 mph N/A   Overcast
1:35 AM -2.2 °F -26.7 °F -5.8 °F 85% 30.03 in 2.0 mi NNW 24.2 mph 31.1 mph N/A   Overcast
1:55 AM -4.0 °F -29.6 °F -7.6 °F 85% 30.03 in 2.0 mi NW 25.3 mph 28.8 mph N/A   Overcast
2:16 AM -4.0 °F -29.1 °F -7.6 °F 85% 30.03 in 2.0 mi NNW 24.2 mph 31.1 mph N/A   Overcast
2:35 AM -4.0 °F -29.1 °F -7.6 °F 85% 30.04 in 1.8 mi NNW 24.2 mph 28.8 mph N/A   Overcast
2:55 AM -4.0 °F -27.0 °F -7.6 °F 85% 30.04 in 1.8 mi NNW 19.6 mph 28.8 mph N/A   Overcast
3:16 AM -5.8 °F -31.0 °F -9.4 °F 84% 30.05 in 1.8 mi NNW 23.0 mph 29.9 mph N/A   Overcast
3:35 AM -5.8 °F -31.0 °F -9.4 °F 84% 30.06 in 1.8 mi NNW 23.0 mph 32.2 mph N/A   Overcast
3:55 AM -7.6 °F -33.4 °F -13.0 °F 77% 30.06 in 1.8 mi NW 23.0 mph 28.8 mph N/A   Overcast
4:16 AM -7.6 °F -32.3 °F -13.0 °F 77% 30.08 in 2.0 mi NNW 20.7 mph 27.6 mph N/A   Haze
4:35 AM -9.4 °F -35.2 °F -14.8 °F 77% 30.08 in 2.0 mi NNW 21.9 mph 25.3 mph N/A   Haze
4:55 AM -9.4 °F -35.2 °F -13.0 °F 84% 30.08 in 2.5 mi NNW 21.9 mph 27.6 mph N/A   Overcast
5:16 AM -9.4 °F -35.8 °F -13.0 °F 84% 30.09 in 2.5 mi NNW 23.0 mph 27.6 mph N/A   Overcast
5:35 AM -7.6 °F -31.1 °F -13.0 °F 77% 30.10 in 2.5 mi NNW 18.4 mph 27.6 mph N/A   Haze
5:55 AM -7.6 °F -30.5 °F -13.0 °F 77% 30.11 in 2.5 mi NNW 17.3 mph 26.5 mph N/A   Haze
6:16 AM -7.6 °F -32.3 °F -13.0 °F 77% 30.12 in 3.0 mi NNW 20.7 mph 31.1 mph N/A   Overcast
6:35 AM -7.6 °F -29.8 °F -13.0 °F 77% 30.12 in 3.0 mi NNW 16.1 mph 28.8 mph N/A   Haze
6:55 AM -7.6 °F -32.3 °F -13.0 °F 77% 30.13 in 3.0 mi NNW 20.7 mph 25.3 mph N/A   Haze
7:16 AM -9.4 °F -33.5 °F -14.8 °F 77% 30.14 in 4.0 mi NNW 18.4 mph - N/A   Haze
7:35 AM -9.4 °F -33.5 °F -14.8 °F 77% 30.16 in 3.0 mi NNW 18.4 mph 24.2 mph N/A   Haze
8:16 AM -11.2 °F -35.8 °F -16.6 °F 77% 30.17 in 4.0 mi NNW 18.4 mph 26.5 mph N/A   Haze
8:35 AM -11.2 °F -37.6 °F -16.6 °F 77% 30.18 in 4.0 mi NNW 21.9 mph - N/A   Haze
8:56 AM -11.2 °F -36.4 °F -16.6 °F 77% 30.19 in 3.0 mi NNW 19.6 mph 25.3 mph N/A   Haze
9:15 AM -11.2 °F -35.8 °F -16.6 °F 77% 30.20 in 2.5 mi NNW 18.4 mph 25.3 mph N/A   Haze
9:35 AM -11.2 °F -36.4 °F -16.6 °F 77% 30.21 in 2.5 mi NNW 19.6 mph 27.6 mph N/A   Haze
9:56 AM -9.4 °F -35.8 °F -16.6 °F 71% 30.21 in 1.5 mi NNW 23.0 mph 26.5 mph N/A   Haze
10:15 AM -9.4 °F -35.2 °F -14.8 °F 77% 30.21 in 1.5 mi NNW 21.9 mph - N/A   Haze
10:36 AM -9.4 °F -34.7 °F -14.8 °F 77% 30.23 in 2.0 mi NNW 20.7 mph 27.6 mph N/A   Haze
10:55 AM -9.4 °F -34.7 °F -14.8 °F 77% 30.24 in 1.8 mi NNW 20.7 mph 28.8 mph N/A   Haze
11:16 AM -9.4 °F -35.2 °F -14.8 °F 77% 30.25 in 2.5 mi NNW 21.9 mph 27.6 mph N/A   Haze
11:35 AM -7.6 °F -33.9 °F -14.8 °F 71% 30.25 in 2.0 mi NNW 24.2 mph 28.8 mph N/A   Haze
11:55 AM -7.6 °F -34.4 °F -14.8 °F 71% 30.26 in 2.5 mi NNW 25.3 mph 31.1 mph N/A   Haze
12:16 PM -7.6 °F -33.9 °F -14.8 °F 71% 30.26 in 2.0 mi NNW 24.2 mph 31.1 mph N/A   Haze
12:35 PM -7.6 °F -34.4 °F -14.8 °F 71% 30.26 in 3.0 mi NNW 25.3 mph 29.9 mph N/A   Haze
12:55 PM -7.6 °F -33.4 °F -14.8 °F 71% 30.26 in 5.0 mi NNW 23.0 mph 28.8 mph N/A   Haze
1:16 PM -7.6 °F -33.9 °F -13.0 °F 77% 30.25 in 4.0 mi NNW 24.2 mph - N/A   Haze
1:35 PM -5.8 °F -31.5 °F -13.0 °F 71% 30.26 in 7.0 mi NNW 24.2 mph - N/A   Scattered Clouds
1:55 PM -5.8 °F -29.4 °F -13.0 °F 71% 30.27 in 7.0 mi NNW 19.6 mph 28.8 mph N/A   Clear
2:16 PM -5.8 °F -28.2 °F -13.0 °F 71% 30.27 in 10.0 mi NNW 17.3 mph 24.2 mph N/A   Clear
2:35 PM -5.8 °F -29.4 °F -11.2 °F 77% 30.28 in 10.0 mi NNW 19.6 mph 23.0 mph N/A   Clear
2:55 PM -5.8 °F -28.2 °F -11.2 °F 77% 30.28 in 10.0 mi NNW 17.3 mph - N/A   Clear
3:15 PM -5.8 °F -28.2 °F -11.2 °F 77% 30.28 in 10.0 mi NNW 17.3 mph 21.9 mph N/A   Clear
3:35 PM -4.0 °F -23.0 °F -11.2 °F 71% 30.30 in 10.0 mi NNW 12.7 mph 19.6 mph N/A   Clear
3:56 PM -5.8 °F -29.4 °F -11.2 °F 77% 30.31 in 10.0 mi NNW 19.6 mph - N/A   Clear
4:15 PM -5.8 °F -27.5 °F -11.2 °F 77% 30.31 in 10.0 mi NNW 16.1 mph - N/A   Clear
4:35 PM -5.8 °F -26.0 °F -11.2 °F 77% 30.32 in 10.0 mi NNW 13.8 mph - N/A   Clear
4:56 PM -5.8 °F -26.0 °F -13.0 °F 71% 30.32 in 10.0 mi NNW 13.8 mph - N/A   Clear
5:15 PM -7.6 °F -26.6 °F -13.0 °F 77% 30.33 in 10.0 mi NNW 11.5 mph - N/A   Clear
6:35 PM -9.4 °F -26.8 °F -14.8 °F 77% 30.35 in 10.0 mi NNW 9.2 mph - N/A   Clear
6:55 PM -11.2 °F -27.8 °F -14.8 °F 84% 30.36 in 10.0 mi NW 8.1 mph - N/A   Clear
7:15 PM -11.2 °F -29.0 °F -14.8 °F 84% 30.36 in 10.0 mi NNW 9.2 mph - N/A   Clear
7:36 PM -13.0 °F -32.4 °F -16.6 °F 84% 30.36 in 10.0 mi North 10.4 mph - N/A   Clear
7:55 PM -13.0 °F -30.0 °F -16.6 °F 84% 30.36 in 10.0 mi NNW 8.1 mph - N/A   Clear
8:16 PM -13.0 °F -31.3 °F -16.6 °F 84% 30.36 in 10.0 mi North 9.2 mph - N/A   Clear
8:36 PM -13.0 °F -31.3 °F -16.6 °F 84% 30.36 in 10.0 mi NNW 9.2 mph - N/A   Clear
8:55 PM -13.0 °F -30.0 °F -18.4 °F 77% 30.37 in 10.0 mi NW 8.1 mph - N/A   Clear
9:16 PM -14.8 °F -33.5 °F -18.4 °F 84% 30.37 in 10.0 mi NNW 9.2 mph - N/A   Clear
9:36 PM -14.8 °F -33.5 °F -18.4 °F 84% 30.38 in 10.0 mi WNW 9.2 mph - N/A   Clear
9:55 PM -14.8 °F -29.1 °F -18.4 °F 84% 30.38 in 10.0 mi NW 5.8 mph - N/A   Clear
10:16 PM -14.8 °F -30.8 °F -18.4 °F 84% 30.38 in 7.0 mi NNW 6.9 mph - N/A   Clear
10:36 PM -14.8 °F -30.8 °F -18.4 °F 84% 30.39 in 10.0 mi NNW 6.9 mph - N/A   Clear
10:55 PM -14.8 °F -29.1 °F -18.4 °F 84% 30.39 in 10.0 mi NNW 5.8 mph - N/A   Clear
11:16 PM -14.8 °F -29.1 °F -18.4 °F 84% 30.39 in 10.0 mi NW 5.8 mph - N/A   Clear
11:35 PM -14.8 °F -30.8 °F -20.2 °F 77% 30.40 in 10.0 mi NW 6.9 mph - N/A   Clear
11:55 PM -14.8 °F -30.8 °F -20.2 °F 77% 30.40 in 10.0 mi NNW 6.9 mph - N/A   Clear